Reno, NV

1:41 AM PDT on June 24, 2017 (GMT -0700)
Reno-Tahoe International

Weather History for KRNO - March, 2013

Change the Weather History Date:

Wednesday, March 6, 2013

  Actual Average Record
Temperature  
Mean Temperature 41 °F 44 °F  
Max Temperature 49 °F 56 °F 75 °F (1972)
Min Temperature 33 °F 32 °F 11 °F (1971)
Degree Days  
Heating Degree Days 24 21  
Month to date heating degree days 106 128  
Since 1 July heating degree days 3590 3766  
Cooling Degree Days 0 0  
Month to date cooling degree days 0 0  
Year to date cooling degree days 0 0  
Moisture  
Dew Point 25 °F    
Average Humidity 59    
Maximum Humidity 89    
Minimum Humidity 28    
Precipitation  
Precipitation 0.02 in 0.03 in 0.39 in (1918)
Month to date precipitation 0.13 0.21  
Year to date precipitation 0.25 2.26  
Snow  
Snow 0.10 in 0.10 in 2.80 in (1918)
Month to date snowfall 0.1 0.7  
Since 1 July snowfall 9.4 19.7  
Snow Depth 0.00 in    
Sea Level Pressure  
Sea Level Pressure 29.81 in    
Wind  
Wind Speed 17 mph (WSW)    
Max Wind Speed 45 mph    
Max Gust Speed 55 mph    
Visibility 7 miles    
Events Rain , Snow    
T = Trace of Precipitation, MM = Missing Value Source: NWS Daily Summary

Daily Weather History Graph

Daily Weather History Graph

Search for Another Location

Airport or City:

Trip Planner

Search our weather history database for the weather conditions in past years. The results will help you decide how hot, cold, wet, or windy it might be!

Date:

Astronomy

Mar. 06, 2013 Rise Set
Actual Time 6:23 AM PST 5:57 PM PST
Civil Twilight 5:57 AM PST 6:23 PM PST
Nautical Twilight 5:26 AM PST 6:55 PM PST
Astronomical Twilight 4:54 AM PST 7:26 PM PST
Moon 2:36 AM PST (3/6) 12:45 PM PST (3/6)
Length of Visible Light 12h 26m
Length of Day
11h 33m
Waning Crescent, 29% of the Moon is Illuminated
Mar 6
Waning Crescent
Mar 11
New
Mar 19
First Quarter
Mar 27
Full
Apr 2
Last Quarter

Hourly Weather History & Observations

Time (PST) Temp. Windchill Dew Point Humidity Pressure Visibility Wind Dir Wind Speed Gust Speed Precip Events Conditions
12:55 AM 45.0 °F 34.6 °F 24.1 °F 44% 29.61 in 10.0 mi SSW 34.5 mph 48.3 mph N/A   Scattered Clouds
1:55 AM 43.0 °F 31.1 °F 26.1 °F 51% 29.62 in 10.0 mi SSW 40.3 mph 52.9 mph N/A   Scattered Clouds
2:55 AM 42.1 °F 32.1 °F 26.1 °F 53% 29.63 in 10.0 mi South 25.3 mph 40.3 mph N/A   Scattered Clouds
3:55 AM 44.1 °F 34.2 °F 24.1 °F 45% 29.60 in 10.0 mi WSW 28.8 mph 39.1 mph N/A   Scattered Clouds
3:58 AM 42.8 °F 32.7 °F 24.8 °F 49% 29.67 in 10.0 mi SW 27.6 mph 39.1 mph N/A   Squalls
4:55 AM 39.9 °F 28.8 °F 30.0 °F 68% 29.65 in 10.0 mi SW 27.6 mph 34.5 mph 0.00 in Rain Light Rain
5:37 AM 35.6 °F 24.5 °F 32.0 °F 87% 29.72 in 7.0 mi South 20.7 mph - 0.00 in Snow Light Snow
5:55 AM 36.0 °F 24.7 °F 32.0 °F 86% 29.68 in 10.0 mi South 21.9 mph - 0.00 in   Mostly Cloudy
6:31 AM 35.6 °F 23.4 °F 32.0 °F 87% 29.74 in 1.8 mi South 25.3 mph 33.4 mph 0.00 in Snow Light Snow
6:55 AM 36.0 °F 27.1 °F 32.0 °F 86% 29.71 in 2.0 mi SSW 13.8 mph - 0.01 in Snow Light Snow
7:11 AM 37.4 °F 30.8 °F 32.0 °F 81% 29.75 in 2.0 mi WSW 9.2 mph 18.4 mph 0.00 in Snow Light Snow
7:29 AM 37.4 °F - 32.0 °F 81% 29.78 in 4.0 mi Calm Calm - 0.00 in Rain Light Rain
7:34 AM 37.4 °F - 32.0 °F 81% 29.78 in 4.0 mi Calm Calm - 0.00 in Rain Light Rain
7:55 AM 37.0 °F 27.0 °F 33.1 °F 86% 29.76 in 4.0 mi South 18.4 mph 24.2 mph 0.00 in Rain Light Rain
8:02 AM 35.6 °F 25.9 °F 33.8 °F 93% 29.80 in 8.0 mi South 16.1 mph 24.2 mph 0.00 in   Overcast
8:36 AM 35.6 °F 24.5 °F 30.2 °F 81% 29.83 in 3.0 mi West 20.7 mph 26.5 mph 0.00 in Rain , Snow Light Snow
8:39 AM 35.6 °F 25.5 °F 30.2 °F 81% 29.83 in 1.0 mi West 17.3 mph 26.5 mph 0.00 in Snow Light Snow
8:43 AM 33.8 °F 22.2 °F 30.2 °F 87% 29.83 in 0.5 mi WNW 20.7 mph 26.5 mph 0.00 in Snow Light Snow
8:46 AM 33.8 °F 23.2 °F 30.2 °F 87% 29.84 in 0.5 mi WNW 17.3 mph 26.5 mph 0.00 in Snow Snow
8:55 AM 33.1 °F 22.6 °F 28.9 °F 85% 29.83 in 0.5 mi West 16.1 mph 27.6 mph 0.00 in Snow Snow
9:01 AM 33.8 °F 23.5 °F 28.4 °F 81% 29.84 in 1.5 mi West 16.1 mph 25.3 mph 0.00 in Snow Light Snow
9:06 AM 33.8 °F 23.5 °F 28.4 °F 81% 29.84 in 2.5 mi West 16.1 mph 23.0 mph 0.01 in Snow Light Snow
9:09 AM 33.8 °F 25.8 °F 28.4 °F 81% 29.84 in 4.0 mi West 10.4 mph 20.7 mph 0.01 in Snow Light Snow
9:55 AM 37.0 °F 31.0 °F 30.0 °F 76% 29.81 in 10.0 mi NE 8.1 mph - 0.01 in   Scattered Clouds
10:55 AM 39.0 °F 28.3 °F 26.1 °F 60% 29.84 in 10.0 mi WNW 24.2 mph 32.2 mph 0.00 in   Mostly Cloudy
11:55 AM 44.1 °F 36.2 °F 17.1 °F 34% 29.85 in 10.0 mi West 18.4 mph 35.7 mph N/A   Mostly Cloudy
12:55 PM 42.1 °F 34.2 °F 21.0 °F 43% 29.86 in 10.0 mi WNW 16.1 mph 21.9 mph 0.00 in   Mostly Cloudy
1:55 PM 46.0 °F 38.5 °F 16.0 °F 30% 29.87 in 10.0 mi WSW 19.6 mph 24.2 mph N/A   Mostly Cloudy
2:55 PM 45.0 °F 38.5 °F 19.0 °F 36% 29.87 in 10.0 mi NNW 13.8 mph - N/A   Mostly Cloudy
3:42 PM 42.8 °F 32.5 °F 17.6 °F 36% 29.90 in 10.0 mi South 28.8 mph 34.5 mph N/A   Mostly Cloudy
3:55 PM 42.1 °F 31.5 °F 16.0 °F 35% 29.86 in 10.0 mi South 28.8 mph 36.8 mph N/A   Mostly Cloudy
4:55 PM 42.1 °F 37.1 °F 15.1 °F 34% 29.87 in 10.0 mi West 8.1 mph 21.9 mph N/A   Mostly Cloudy
5:55 PM 39.9 °F 33.4 °F 15.1 °F 36% 29.89 in 10.0 mi West 10.4 mph 17.3 mph N/A   Mostly Cloudy
6:55 PM 37.9 °F 32.7 °F 18.0 °F 45% 29.91 in 10.0 mi North 6.9 mph - N/A   Mostly Cloudy
7:55 PM 39.0 °F 33.4 °F 16.0 °F 39% 29.91 in 10.0 mi West 8.1 mph - N/A   Mostly Cloudy
8:55 PM 37.0 °F 32.4 °F 18.0 °F 46% 29.95 in 10.0 mi North 5.8 mph - N/A   Mostly Cloudy
9:55 PM 36.0 °F 32.1 °F 19.0 °F 50% 29.95 in 10.0 mi ENE 4.6 mph - N/A   Mostly Cloudy
10:55 PM 33.8 °F 30.8 °F 19.4 °F 56% 29.95 in 10.0 mi North 3.5 mph - N/A   Scattered Clouds
11:55 PM 34.0 °F - 18.0 °F 52% 29.93 in 10.0 mi Calm Calm - N/A   Mostly Cloudy